Theta_e
331 328 325 323 324 325 324 326 326 320 315 315 316 318 319 319 319 316 318 318 318 319 318 318 317 315 315 315 316 316 316 317 317 317 316 315 315 315 315 315 315 314 314
329 328 326 325 325 325 321 318 315 315 318 319 318 318 317 317 317 317 317 317 317 316 316 315 315 316 314 315 315 315 316 315 314 314 314 314 314 314 315 315 314 314 313
326 325 324 322 321 320 315 314 315 315 316 317 317 317 317 316 316 317 316 315 315 315 314 314 314 314 314 314 315 316 315 315 314 312 312 312 313 313 314 314 314 315 314
322 322 322 322 321 320 319 319 319 318 318 317 316 316 316 316 315 315 312 312 312 313 313 313 314 313 313 314 312 312 312 312 311 310 311 311 311 312 313 313 313 313 313
321 321 321 320 319 318 318 317 317 316 316 315 315 315 314 314 313 311 310 308 308 310 312 313 313 313 312 311 311 312 312 311 310 309 310 310 310 310 311 311 311 311 312
317 317 317 316 316 316 315 315 315 315 314 314 313 312 311 312 311 309 307 307 307 309 311 311 312 311 312 311 313 313 312 310 310 310 310 310 310 309 309 309 310 309 310
314 314 313 313 313 313 313 314 313 312 312 312 311 310 309 309 308 307 307 307 307 309 309 310 309 310 312 312 312 313 312 311 310 310 309 308 308 308 307 309 309 309 310
311 311 311 311 311 312 311 310 311 310 309 309 308 308 307 306 306 307 305 306 307 308 308 308 310 309 310 311 312 311 311 309 310 312 311 312 310 310 310 309 309 310 311
309 309 309 310 310 310 309 308 309 308 308 308 307 306 305 305 306 305 305 305 304 304 306 308 306 307 308 309 310 309 311 310 312 312 311 310 308 308 307 308 310 310 310
307 308 308 308 308 307 307 307 306 306 306 305 304 304 304 302 304 304 305 305 305 307 303 303 305 305 307 309 310 308 309 309 310 309 309 309 306 305 307 307 309 309 309
306 307 307 306 306 306 304 304 304 305 306 305 304 303 301 299 300 303 304 305 306 306 301 303 305 306 307 307 307 305 304 305 303 304 306 306 306 303 301 304 308 308 309
306 306 305 305 304 304 304 303 303 303 303 303 303 302 300 299 298 301 303 303 303 304 305 305 305 306 305 304 304 303 301 300 300 302 305 304 306 304 304 304 306 310 311
305 305 304 303 303 302 302 300 299 298 299 300 300 301 300 299 296 298 300 302 302 302 303 303 302 303 301 300 299 299 300 299 299 298 298 302 301 300 301 303 305 307 310
304 303 302 303 302 300 299 298 293 292 294 294 295 297 297 294 291 293 296 298 297 298 300 299 299 299 298 297 297 297 298 297 297 297 296 299 299 299 300 300 304 308 310
303 303 303 302 302 301 298 296 294 290 289 289 290 292 290 289 289 290 290 291 292 295 296 297 297 296 295 296 296 296 296 295 296 296 295 297 298 297 298 299 301 304 304
301 300 301 301 300 299 299 297 295 293 292 289 289 288 289 288 289 290 290 291 292 293 295 295 294 294 294 294 294 294 294 294 294 294 294 297 294 292 294 298 299 301 304
300 300 299 299 298 298 297 297 297 295 294 292 290 289 289 289 289 290 291 292 291 292 293 293 293 293 293 293 294 293 293 293 293 292 293 296 293 292 293 296 300 301 306
297 297 298 297 297 296 296 295 295 294 294 293 291 289 289 290 290 290 291 292 292 292 292 292 292 292 292 292 293 293 293 292 292 291 295 296 294 292 294 296 298 301 307
297 297 296 294 294 294 294 294 294 294 294 293 291 290 290 291 291 291 291 292 292 292 292 292 292 292 292 292 292 292 292 291 290 290 292 296 294 293 294 297 299 304 310
292 293 294 294 294 294 294 294 293 293 293 293 292 289 290 292 292 292 291 291 291 291 291 291 291 291 291 291 291 291 291 290 289 289 289 296 295 293 296 299 300 306 312
293 293 293 293 293 293 293 293 293 292 292 292 292 290 290 291 291 291 291 291 291 291 291 291 291 291 291 291 290 289 289 288 288 289 288 292 297 295 298 300 303 305 310
294 293 293 293 292 292 292 292 292 292 292 291 291 291 290 291 291 291 291 291 290 290 290 290 290 290 290 290 289 288 288 286 288 288 289 290 292 295 298 300 301 303 306
293 293 293 292 292 292 292 292 291 291 291 291 291 291 290 290 290 290 290 290 290 290 289 289 289 289 289 289 288 286 286 286 287 287 289 290 291 291 298 300 301 303 306
293 292 292 291 291 291 291 291 291 290 290 290 290 290 290 290 290 289 289 289 289 289 289 289 289 288 288 289 287 285 285 286 286 288 289 290 290 290 294 298 299 301 304
292 292 291 291 290 290 290 290 290 289 289 289 289 289 289 289 288 288 288 288 288 288 288 288 288 288 288 288 286 284 285 286 287 287 289 289 290 290 290 297 298 301 303
291 291 291 290 290 290 290 289 289 288 288 288 289 288 288 288 287 287 287 287 287 287 287 287 287 287 286 286 285 283 285 286 287 288 288 289 289 289 288 292 297 300 301
Wind_Speed
19 19 18 21 20 16 14 9 7 8 7 4 2 1 3 4 7 10 11 10 11 12 13 13 14 15 19 19 19 15 15 17 24 28 29 32 33 31 30 32 31 30 28
23 22 21 18 15 12 11 10 9 8 6 5 3 3 5 5 9 9 10 11 11 13 14 15 14 15 19 17 16 17 20 24 25 30 34 29 30 30 32 31 30 29 27
23 22 20 19 16 14 12 9 6 4 1 2 2 4 6 7 9 10 10 12 12 13 15 14 15 16 18 16 18 21 20 21 22 26 34 30 28 29 31 31 32 31 27
22 21 19 17 14 12 10 9 6 5 3 2 3 5 7 8 9 10 9 11 13 13 15 15 14 16 17 19 23 18 21 24 25 27 29 31 33 34 29 33 36 33 32
21 19 17 14 13 12 9 7 4 2 1 3 5 5 9 8 14 17 19 19 16 15 14 13 14 17 20 20 22 24 24 25 26 29 32 34 35 36 35 33 35 34 35
20 18 15 12 11 9 7 4 3 1 2 2 5 6 6 12 16 19 20 20 17 14 14 14 19 11 18 24 19 20 21 22 29 29 32 32 36 32 35 35 37 32 32
18 16 13 11 10 9 8 5 3 1 0 1 3 4 6 15 19 22 18 18 15 13 14 17 18 13 18 16 19 18 18 19 21 26 30 30 34 34 32 34 30 28 28
17 15 13 11 9 8 6 6 5 4 3 3 4 5 11 17 21 21 19 16 11 12 14 16 13 13 16 18 19 18 18 17 20 24 26 30 31 27 26 26 27 29 29
15 14 11 10 8 8 7 7 6 5 3 5 7 6 9 18 20 21 18 13 9 11 10 9 12 13 18 18 20 19 21 21 24 26 29 33 30 25 18 23 23 25 28
12 11 10 10 8 7 7 7 5 5 5 3 2 8 13 14 20 18 15 12 10 9 7 10 12 15 18 17 20 19 25 27 28 30 30 31 28 26 19 17 20 20 24
13 11 10 9 10 7 7 7 6 6 7 8 7 7 12 17 15 17 16 13 11 8 7 8 9 13 16 17 20 21 26 28 25 27 31 30 30 28 27 24 19 18 21
12 12 11 10 9 9 10 9 9 8 9 9 8 8 9 10 17 14 13 12 12 11 10 12 14 15 16 18 18 22 24 25 26 30 35 33 37 37 36 31 22 18 18
13 12 10 10 9 9 9 8 7 8 7 6 6 7 9 10 13 14 10 10 12 13 13 13 16 17 21 20 18 21 21 20 23 27 35 39 39 38 36 27 21 17 20
11 10 10 8 8 9 9 9 11 11 8 8 8 9 9 10 15 17 15 14 14 12 13 18 22 21 20 22 21 20 18 20 22 24 38 43 39 39 35 27 23 18 19
10 9 8 7 7 7 9 11 9 18 18 13 13 9 12 15 19 19 19 20 19 16 18 14 14 16 19 19 20 20 21 23 24 26 45 47 44 42 36 27 23 19 19
9 7 8 7 7 7 6 8 14 18 21 21 19 16 12 18 18 18 16 21 16 18 15 16 18 18 20 22 23 24 24 25 26 27 44 45 46 43 38 29 25 22 22
10 9 8 8 8 8 8 8 9 14 17 21 21 18 18 18 20 17 20 19 22 18 17 18 19 20 21 22 23 24 25 26 28 28 45 47 49 44 38 33 29 27 24
12 13 9 9 9 9 9 9 9 9 10 13 17 19 18 24 25 23 21 17 18 20 19 20 21 21 22 23 24 25 26 28 31 34 43 49 52 48 43 37 34 30 25
9 10 10 10 11 11 10 10 10 10 10 10 11 14 16 20 21 22 21 18 19 20 20 20 20 21 22 23 24 25 27 31 34 37 42 48 53 54 49 41 36 30 28
12 17 12 10 10 10 10 10 10 10 10 11 11 18 16 16 17 19 19 19 19 19 19 19 20 21 22 23 24 26 27 31 38 40 44 44 51 55 52 45 37 31 30
11 13 14 10 10 10 10 10 10 10 11 11 11 17 19 17 16 17 17 17 18 18 19 19 19 21 22 23 25 27 27 32 39 40 42 41 47 54 53 47 37 31 26
10 10 10 10 10 10 10 10 10 10 11 11 11 13 19 14 15 16 16 17 17 17 18 18 18 21 22 23 24 27 28 33 40 39 41 41 45 48 51 49 44 36 29
10 10 10 10 10 11 10 9 10 10 10 11 12 13 13 14 14 15 16 16 16 17 18 18 17 20 22 22 22 27 28 37 38 37 37 39 41 43 46 48 46 39 31
9 10 9 9 9 9 8 8 9 11 11 11 12 12 13 13 14 15 15 16 17 17 18 17 18 21 22 21 22 28 31 34 36 34 33 35 37 39 38 44 45 40 34
9 8 8 8 7 7 8 8 9 9 10 10 11 12 12 13 13 14 15 16 17 17 18 17 17 21 22 21 26 32 32 32 32 30 30 31 32 34 36 38 43 40 37
8 8 7 7 7 7 7 7 8 9 9 10 11 11 12 12 13 13 15 16 17 17 18 17 19 21 22 20 31 33 33 32 31 30 28 28 30 34 36 35 38 40 37
Wind_Direction
138 139 139 145 144 147 155 157 164 173 175 208 230 278 281 293 300 304 306 311 298 303 302 303 292 302 312 304 296 294 293 295 292 288 294 301 303 308 310 309 310 308 306
130 127 126 130 134 136 130 135 145 151 145 156 188 246 274 306 305 310 308 302 303 301 299 297 309 299 297 298 305 301 295 289 289 295 301 306 306 318 313 317 321 324 319
123 121 117 116 119 122 130 135 146 155 180 177 234 282 311 308 308 305 306 299 302 304 304 297 301 302 299 294 287 291 295 292 295 299 300 308 307 311 316 317 318 321 313
118 116 112 111 115 115 117 118 125 146 174 245 288 307 309 303 298 265 303 306 306 303 300 301 304 303 293 294 297 301 299 311 312 310 307 308 312 325 317 314 313 312 312
114 111 108 110 109 108 109 109 120 129 257 297 303 304 276 291 266 281 298 307 307 304 303 304 300 284 297 297 301 310 315 317 317 319 315 316 316 317 317 312 308 308 307
110 106 104 104 99 98 97 96 77 13 286 290 273 257 268 259 286 299 313 313 311 308 304 303 287 323 287 289 306 322 328 334 324 320 317 310 309 309 306 309 310 308 303
104 101 100 97 94 92 87 84 87 198 294 294 270 277 291 288 300 301 311 316 322 314 310 291 296 302 299 314 330 331 343 324 320 312 308 309 306 314 310 311 310 310 299
97 95 93 89 83 84 80 64 59 40 41 3 324 340 302 292 297 316 322 319 337 296 283 293 307 305 306 328 341 342 333 336 320 332 332 331 322 322 316 314 313 310 311
86 82 84 87 81 69 58 58 53 45 16 12 337 309 299 300 314 326 332 335 309 290 304 319 303 313 318 335 335 335 334 335 336 343 344 337 334 327 317 314 316 319 312
83 89 85 82 75 65 64 56 46 57 359 359 306 286 301 324 327 337 340 337 331 325 354 319 325 324 324 330 333 336 335 340 345 348 342 341 339 333 321 297 294 302 305
96 91 85 81 79 76 63 56 46 40 20 4 354 342 339 337 337 342 339 346 341 340 343 329 318 337 337 335 334 335 335 337 346 342 343 341 339 339 332 318 297 293 297
97 94 89 91 88 67 63 54 41 30 19 11 18 12 342 347 330 345 346 352 357 353 345 337 335 333 336 333 336 336 356 353 336 346 349 345 341 340 334 328 313 278 278
99 96 93 85 76 64 58 55 39 33 28 11 5 356 351 350 338 345 342 348 359 355 355 351 349 352 359 357 3 4 359 339 338 344 348 349 345 339 337 331 323 303 282
101 96 92 97 82 77 72 42 46 37 40 25 24 10 1 348 348 3 9 10 10 10 12 11 9 360 357 356 1 355 355 346 346 340 348 351 347 344 346 344 337 333 310
95 89 86 76 78 79 55 59 43 39 45 41 38 24 19 9 11 13 20 23 29 33 29 10 6 6 4 3 2 360 357 354 350 342 347 353 353 352 351 351 348 341 331
93 95 95 87 78 72 50 28 23 30 33 34 32 36 29 20 17 22 31 32 36 38 27 19 15 13 8 5 3 359 357 354 351 348 349 358 360 357 354 354 354 349 339
98 90 80 81 72 68 62 60 13 20 22 18 19 27 27 27 29 38 43 33 15 32 28 22 17 12 9 5 2 358 355 353 350 346 355 4 5 2 1 360 0 355 349
85 90 83 77 72 66 63 57 50 52 41 18 3 10 26 29 25 28 40 28 24 23 24 18 14 11 7 4 1 357 355 351 349 349 360 9 10 7 6 4 1 358 355
95 83 73 70 73 73 62 57 49 42 39 27 15 15 20 27 22 16 24 26 21 18 16 14 10 8 4 2 359 357 354 348 347 351 4 9 12 11 8 4 2 6 8
86 97 85 76 69 63 58 51 42 37 33 26 13 16 20 31 18 17 20 19 17 15 12 11 8 6 2 1 359 357 354 349 353 358 5 8 12 12 8 7 7 7 8
79 72 76 70 66 59 54 47 39 35 31 24 17 11 36 30 15 17 14 15 12 11 7 7 6 3 1 0 357 357 354 350 355 360 1 8 12 9 10 11 8 13 13
83 79 72 66 61 57 56 43 36 32 27 24 21 8 21 19 16 13 10 10 8 8 4 4 4 1 360 1 356 358 353 353 357 1 359 10 10 5 9 9 9 12 14
78 74 68 62 51 49 40 35 32 31 25 19 17 14 14 13 11 8 7 5 4 4 1 2 1 359 359 2 355 360 353 355 0 1 359 10 4 357 5 9 10 10 12
76 71 64 54 60 46 49 32 25 17 22 15 13 11 9 8 5 4 3 1 360 1 359 359 358 357 357 358 352 356 355 357 360 1 4 10 355 351 359 8 8 10 9
81 73 67 58 53 47 33 28 21 17 14 11 8 5 3 2 359 1 357 357 356 357 355 356 354 354 355 350 345 352 356 359 359 1 5 10 349 351 359 6 7 7 10
67 66 59 57 50 40 34 26 18 7 13 4 2 356 359 355 353 358 351 353 353 352 352 351 350 351 353 342 345 353 354 356 358 359 10 358 353 354 1 2 5 6 7